Location: Mountain Grove
(34.0887°N, 86.6172°W)
Time: 00:53:05
(UTC+00:00)

Cosmos 1452 Rocket - Pass Details

Date: 14 July 2020
Orbit: 768 x 774 km, 74.1° (Epoch: 12 August)

Event Time Altitude Azimuth Distance (km) Brightness Sun altitude
Rises 04:45:41 0° 339° (NNW) 3,245 7.9 -32.1°
Reaches altitude 10° 04:48:04 10° 337° (NNW) 2,314 6.8 -32.2°
Enters shadow 04:51:39 43° 322° (NW) 1,066 4.5 -32.5°
